Location: Marcé
(47.5801°N, 0.3280°W)
Time: 17:53:12
(UTC+01:00)

Tiros 1 - Pass Details

Date: 07 December 2021
Orbit: 629 x 664 km, 48.4° (Epoch: 26 January)

Event Time Altitude Azimuth Distance (km) Brightness Sun altitude
Rises 00:01:25 0° 286° (WNW) 2,950 - -63.0°
Reaches altitude 10° 00:03:50 10° 279° (W) 2,044 - -63.2°
Maximum altitude 00:08:13 39° 211° (SSW) 969 - -63.5°
Drops below altitude 10° 00:12:38 10° 142° (SE) 2,057 - -63.8°
Sets 00:15:05 0° 135° (SE) 2,970 - -63.9°
